Latest Weather Observations for Maryborough

IDQ60801

Issued at 7:35 am EST Sunday 26 October 2014 (issued every 30 minutes, with the page automatically refreshed every 10 minutes)

About weather observations | Map of weather stations | Latest weather observations for QLD | Other Formats
Station Details ID: 040126 Name: MARYBOROUGH Lat: -25.52 Lon: 152.72 Height: 10.28 m
Data from the previous 72 hours. | See also: Recent months at Maryborough
Date/Time
EST
Temp
°C
App
Temp
°C
Dew
Point
Rel
Hum
%
Delta-T
°C
Wind Press
QNH
hPa
Press
MSL
hPa
Rain
since 9 am
mm
Dir
 
Spd
km/h
Gust
km/h
Spd
kts
Gust
kts
26/07:30am 23.2 21.7 16.7 67 4.0 N 20 26 11 14 1018.1 - 0.0
26/07:00am 21.5 21.9 17.3 77 2.6 NNW 11 13 6 7 1018.2 - 0.0
26/06:30am 19.4 21.6 17.4 88 1.2 NNW 2 7 1 4 1018.1 - 0.0
26/06:00am 17.3 19.4 16.3 94 0.6 CALM 0 0 0 0 1017.8 1017.7 0.0
26/05:30am 15.8 17.4 15.0 95 0.5 CALM 0 0 0 0 1017.5 - 0.0
26/05:00am 15.6 16.7 14.6 94 0.6 NNW 2 6 1 3 1017.5 - 0.0
26/04:44am 15.7 16.5 14.7 94 0.6 NNW 4 7 2 4 1017.1 - 0.0
26/04:30am 16.1 17.8 15.3 95 0.5 CALM 0 0 0 0 1017.1 - 0.0
26/04:28am 16.1 17.8 15.3 95 0.5 CALM 0 0 0 0 1017.1 - 0.0
26/04:00am 16.5 18.4 15.7 95 0.5 CALM 0 0 0 0 1017.3 - 0.0
26/03:30am 16.2 18.0 15.4 95 0.5 CALM 0 0 0 0 1017.4 - 0.0
26/03:18am 16.0 17.6 15.0 94 0.6 CALM 0 0 0 0 1017.5 - 0.0
26/03:00am 15.6 17.0 14.5 93 0.6 CALM 0 2 0 1 1017.4 1017.3 0.0
26/02:48am 16.1 17.8 15.1 94 0.6 CALM 0 0 0 0 1017.2 - 0.0
26/02:38am 16.4 18.2 15.4 94 0.6 CALM 0 0 0 0 1017.1 - 0.0
26/02:30am 16.2 17.9 15.1 93 0.6 CALM 0 0 0 0 1017.0 - 0.0
26/02:14am 16.2 17.7 14.7 91 0.9 CALM 0 0 0 0 1017.0 - 0.0
26/02:00am 16.7 18.5 15.6 93 0.6 CALM 0 4 0 2 1017.0 - 0.0
26/01:30am 16.5 16.9 14.7 89 1.0 NW 6 7 3 4 1017.0 - 0.0
26/01:00am 16.7 18.3 14.9 89 1.0 CALM 0 0 0 0 1017.3 - 0.0
26/12:30am 17.0 17.2 14.8 87 1.3 NW 7 9 4 5 1017.5 - 0.0
26/12:00am 17.3 19.0 15.3 88 1.2 NNW 0 0 0 0 1017.9 1017.8 0.0
 
Date/Time
EST
Temp
°C
App
Temp
°C
Dew
Point
Rel
Hum
%
Delta-T
°C
Wind Press
QNH
hPa
Press
MSL
hPa
Rain
since 9 am
mm
Dir
 
Spd
km/h
Gust
km/h
Spd
kts
Gust
kts
25/11:30pm 17.3 19.1 15.6 90 1.0 CALM 0 0 0 0 1017.9 - 0.0
25/11:00pm 17.1 18.8 15.3 89 1.0 CALM 0 0 0 0 1018.2 - 0.0
25/10:30pm 17.6 19.1 15.6 88 1.2 NNW 2 6 1 3 1018.2 - 0.0
25/10:00pm 17.8 18.7 15.2 85 1.5 NNW 4 6 2 3 1018.2 - 0.0
25/09:30pm 18.6 19.2 15.3 81 1.9 NNW 6 6 3 3 1018.4 - 0.0
25/09:00pm 19.4 20.0 15.7 79 2.2 N 7 9 4 5 1018.3 1018.2 0.0
25/08:30pm 19.5 19.3 15.6 78 2.3 N 11 13 6 7 1018.1 - 0.0
25/08:00pm 20.1 19.9 15.7 76 2.6 N 11 15 6 8 1018.0 - 0.0
25/07:30pm 20.3 19.6 15.5 74 2.8 N 13 19 7 10 1017.9 - 0.0
25/07:00pm 21.0 19.9 15.3 70 3.4 N 15 24 8 13 1017.8 - 0.0
25/06:30pm 21.3 19.4 15.2 68 3.6 N 19 30 10 16 1017.4 - 0.0
25/06:00pm 22.0 19.9 15.1 65 4.1 N 20 30 11 16 1017.2 1017.1 0.0
25/05:30pm 22.7 20.0 14.5 60 4.8 N 22 30 12 16 1016.9 - 0.0
25/05:00pm 23.7 21.4 14.7 57 5.3 N 20 26 11 14 1016.8 - 0.0
25/04:30pm 24.6 22.0 15.0 55 5.7 NNE 22 30 12 16 1016.7 - 0.0
25/04:00pm 25.6 23.4 15.0 52 6.4 N 20 28 11 15 1016.5 - 0.0
25/03:30pm 26.5 24.3 14.9 49 7.0 N 20 26 11 14 1016.5 - 0.0
25/03:00pm 27.1 24.9 14.8 47 7.4 NNE 20 30 11 16 1016.5 1016.4 0.0
25/02:30pm 27.7 26.2 15.4 47 7.5 N 17 26 9 14 1016.7 - 0.0
25/02:00pm 27.5 26.2 14.8 45 7.7 N 15 22 8 12 1017.1 - 0.0
25/01:30pm 28.0 26.8 15.0 45 7.9 N 15 24 8 13 1017.6 - 0.0
25/01:00pm 27.0 24.8 13.4 43 8.0 N 17 28 9 15 1018.0 - 0.0
25/12:30pm 26.9 24.6 14.0 45 7.7 NNE 19 28 10 15 1018.4 - 0.0
25/12:00pm 26.8 24.2 13.9 45 7.6 NNE 20 32 11 17 1018.8 1018.7 0.0
25/11:30am 26.4 25.7 14.2 47 7.3 N 11 20 6 11 1019.3 - 0.0
25/11:00am 26.0 24.0 13.8 47 7.2 N 17 26 9 14 1019.9 - 0.0
25/10:30am 25.8 24.3 14.3 49 6.8 NNW 15 24 8 13 1020.4 - 0.0
25/10:00am 25.0 23.6 13.5 48 6.7 N 13 20 7 11 1020.9 - 0.0
25/09:30am 24.6 22.9 14.7 54 5.9 N 17 24 9 13 1021.5 - 0.0
25/09:00am 24.2 22.8 14.6 55 5.7 NW 15 22 8 12 1021.7 1021.6 0.0
25/08:30am 23.5 23.1 15.3 60 4.9 NNW 11 26 6 14 1022.0 - 0.0
25/08:00am 22.0 22.3 14.9 64 4.2 NNW 7 9 4 5 1021.8 - 0.0
25/07:30am 20.8 21.5 14.5 67 3.7 WSW 4 9 2 5 1021.7 - 0.0
25/07:00am 19.1 19.6 14.1 73 2.9 SW 4 7 2 4 1021.5 - 0.0
25/06:30am 17.3 16.9 14.0 81 1.9 SSW 9 9 5 5 1021.5 - 0.0
25/06:00am 15.8 15.6 13.6 87 1.2 SW 7 9 4 5 1021.4 1021.3 0.0
25/05:30am 14.7 14.3 13.1 90 0.9 WSW 7 9 4 5 1020.7 - 0.0
25/05:00am 14.1 13.9 13.5 96 0.3 SW 7 9 4 5 1020.4 - 0.0
25/04:30am 12.6 13.1 11.7 94 0.5 CALM 0 7 0 4 1019.9 - 0.0
25/04:00am 12.3 12.7 11.4 94 0.5 CALM 0 0 0 0 1019.5 - 0.0
25/03:30am 12.2 12.6 11.3 94 0.5 CALM 0 0 0 0 1019.3 - 0.0
25/03:00am 12.6 13.1 11.7 94 0.5 CALM 0 0 0 0 1019.4 1019.3 0.0
25/02:30am 12.7 13.3 11.8 94 0.5 CALM 0 0 0 0 1019.4 - 0.0
25/02:00am 12.7 13.1 11.4 92 0.7 CALM 0 0 0 0 1019.7 - 0.0
25/01:30am 13.0 13.5 11.7 92 0.7 CALM 0 0 0 0 1020.1 - 0.0
25/01:00am 13.8 14.6 12.7 93 0.6 CALM 0 0 0 0 1020.6 - 0.0
25/12:30am 13.9 14.7 12.6 92 0.7 CALM 0 0 0 0 1021.0 - 0.0
25/12:00am 14.0 14.8 12.6 91 0.8 CALM 0 0 0 0 1021.2 1021.1 0.0
 
Date/Time
EST
Temp
°C
App
Temp
°C
Dew
Point
Rel
Hum
%
Delta-T
°C
Wind Press
QNH
hPa
Press
MSL
hPa
Rain
since 9 am
mm
Dir
 
Spd
km/h
Gust
km/h
Spd
kts
Gust
kts
24/11:30pm 13.8 14.4 12.0 89 1.0 CALM 0 0 0 0 1021.4 - 0.0
24/11:00pm 14.7 15.7 13.1 90 0.9 CALM 0 0 0 0 1021.6 - 0.0
24/10:30pm 14.5 15.2 12.2 86 1.2 CALM 0 0 0 0 1021.9 - 0.0
24/10:00pm 15.5 15.7 13.2 86 1.3 SSW 4 7 2 4 1022.0 - 0.0
24/09:30pm 15.7 16.6 13.0 84 1.5 CALM 0 7 0 4 1022.2 - 0.0
24/09:00pm 15.8 15.4 12.4 80 1.9 ESE 6 7 3 4 1022.4 1022.3 0.0
24/08:30pm 17.2 18.1 12.9 76 2.4 CALM 0 0 0 0 1022.2 - 0.0
24/08:00pm 17.5 17.2 12.8 74 2.6 E 6 9 3 5 1022.0 - 0.0
24/07:30pm 18.9 18.5 12.9 68 3.4 ENE 7 9 4 5 1021.8 - 0.0
24/07:00pm 19.6 18.5 13.1 66 3.7 E 11 15 6 8 1021.5 - 0.0
24/06:30pm 20.5 19.0 13.0 62 4.3 ENE 13 17 7 9 1021.2 - 0.0
24/06:00pm 21.2 19.6 12.9 59 4.7 E 13 19 7 10 1020.9 1020.8 0.0
24/05:30pm 22.3 19.6 12.8 55 5.4 E 19 24 10 13 1020.4 - 0.0
24/05:00pm 23.3 20.1 13.2 53 5.8 E 22 32 12 17 1020.1 - 0.0
24/04:30pm 24.2 21.4 13.1 50 6.4 E 20 28 11 15 1020.1 - 0.0
24/04:00pm 24.8 21.9 13.0 47 6.8 E 20 28 11 15 1019.7 - 0.0
24/03:30pm 25.3 22.1 13.2 47 7.1 E 22 30 12 16 1019.3 - 0.0
24/03:00pm 25.7 23.1 13.9 48 7.0 NE 20 32 11 17 1019.3 1019.2 0.0
24/02:30pm 26.6 24.4 13.3 43 7.8 E 17 24 9 13 1019.5 - 0.0
24/02:00pm 26.1 23.8 12.9 44 7.7 E 17 30 9 16 1019.6 - 0.0
24/01:30pm 26.6 24.9 13.7 45 7.6 E 15 24 8 13 1019.7 - 0.0
24/01:00pm 26.9 24.9 14.0 45 7.7 E 17 30 9 16 1020.0 - 0.0
24/12:30pm 26.1 23.4 13.6 46 7.4 E 20 28 11 15 1020.3 - 0.0
24/12:00pm 26.0 24.2 13.2 45 7.5 E 15 28 8 15 1020.9 1020.8 0.0
24/11:30am 26.0 24.8 14.1 47 7.1 E 13 26 7 14 1021.2 - 0.0
24/11:00am 25.2 23.8 13.4 48 6.9 E 13 24 7 13 1021.7 - 0.0
24/10:30am 24.8 23.3 13.0 47 6.8 ESE 13 22 7 12 1022.0 - 0.0
24/10:00am 25.1 24.5 14.6 52 6.3 SE 11 22 6 12 1022.3 - 0.0
24/09:30am 24.2 23.7 13.7 52 6.1 ESE 9 19 5 10 1022.6 - 0.0
24/09:00am 23.4 22.5 13.6 54 5.7 S 11 17 6 9 1022.8 1022.7 0.0
24/08:30am 22.9 22.7 13.7 56 5.4 WSW 7 11 4 6 1022.9 - 0.0
24/08:00am 21.8 22.0 14.2 62 4.4 SE 6 11 3 6 1022.6 - 0.0
24/07:30am 20.5 20.7 14.8 70 3.3 SSE 7 11 4 6 1022.4 - 0.0
24/07:00am 18.2 18.0 13.5 74 2.7 S 7 9 4 5 1022.3 - 0.0
24/06:30am 16.6 17.4 13.7 83 1.6 SSE 2 6 1 3 1021.9 - 0.0
24/06:00am 14.7 14.6 13.2 91 0.8 S 6 9 3 5 1021.8 1021.7 0.0
24/05:30am 13.3 12.2 12.0 92 0.7 S 9 11 5 6 1021.6 - 0.0
24/05:00am 13.0 11.9 12.1 94 0.5 S 9 11 5 6 1021.3 - 0.0
24/04:30am 12.6 13.1 11.5 93 0.6 CALM 0 0 0 0 1020.8 - 0.0
24/04:00am 13.1 13.7 12.0 93 0.6 CALM 0 0 0 0 1020.4 - 0.0
24/03:30am 13.5 14.2 12.2 92 0.7 CALM 0 0 0 0 1020.4 - 0.0
24/03:00am 13.4 13.2 11.8 90 0.9 SSW 4 6 2 3 1020.5 1020.4 0.0
24/02:30am 13.7 13.2 12.1 90 0.9 SSW 6 7 3 4 1020.8 - 0.0
24/02:00am 14.2 14.1 13.4 95 0.4 S 6 9 3 5 1021.0 - 0.0
24/01:30am 12.9 13.4 11.5 91 0.7 CALM 0 0 0 0 1021.0 - 0.0
24/01:00am 13.6 14.3 12.3 92 0.7 CALM 0 0 0 0 1021.0 - 0.0
24/12:30am 14.0 14.9 12.9 93 0.6 CALM 0 0 0 0 1021.2 - 0.0
24/12:00am 14.0 14.8 12.6 91 0.8 CALM 0 0 0 0 1021.5 1021.4 0.0
 
Date/Time
EST
Temp
°C
App
Temp
°C
Dew
Point
Rel
Hum
%
Delta-T
°C
Wind Press
QNH
hPa
Press
MSL
hPa
Rain
since 9 am
mm
Dir
 
Spd
km/h
Gust
km/h
Spd
kts
Gust
kts
23/11:30pm 14.3 15.2 13.0 92 0.7 CALM 0 0 0 0 1021.5 - 0.0
23/11:00pm 15.0 16.2 13.7 92 0.7 CALM 0 0 0 0 1021.7 - 0.0
23/10:30pm 14.6 15.5 12.8 89 1.0 CALM 0 0 0 0 1021.5 - 0.0
23/10:00pm 14.4 15.0 11.9 85 1.3 CALM 0 0 0 0 1021.6 - 0.0
23/09:30pm 14.9 15.8 12.8 87 1.2 CALM 0 0 0 0 1021.5 - 0.0
23/09:00pm 15.2 15.8 11.8 80 1.8 CALM 0 0 0 0 1021.5 1021.4 0.0
23/08:30pm 16.2 17.0 12.6 79 2.0 CALM 0 0 0 0 1021.2 - 0.0
23/08:00pm 16.8 17.5 12.3 75 2.5 CALM 0 0 0 0 1020.8 - 0.0
23/07:30pm 17.9 17.5 12.4 70 3.1 ENE 6 9 3 5 1020.2 - 0.0
23/07:00pm 18.8 17.8 12.3 66 3.6 E 9 13 5 7 1019.9 - 0.0
23/06:30pm 20.0 18.3 12.5 62 4.2 E 13 17 7 9 1019.3 - 0.0
23/06:00pm 21.0 18.7 11.9 56 5.1 E 15 24 8 13 1018.9 1018.8 0.0
23/05:30pm 22.5 19.5 10.6 47 6.5 E 17 22 9 12 1018.5 - 0.0
23/05:00pm 23.7 20.0 9.3 40 7.8 E 19 24 10 13 1018.1 - 0.0
23/04:30pm 24.6 20.8 9.0 37 8.4 E 19 28 10 15 1017.8 - 0.0
23/04:00pm 25.4 21.7 9.3 36 8.8 E 19 26 10 14 1017.7 - 0.0
23/03:30pm 25.9 22.3 10.5 38 8.6 ENE 20 28 11 15 1017.5 - 0.0
23/03:00pm 26.5 23.7 11.4 39 8.6 E 17 28 9 15 1017.7 1017.6 0.0
23/02:30pm 27.0 25.1 13.0 42 8.2 E 15 22 8 12 1017.9 - 0.0
23/02:00pm 26.1 23.2 11.1 39 8.5 ESE 17 22 9 12 1018.0 - 0.0
23/01:30pm 26.1 23.2 11.1 39 8.5 E 17 26 9 14 1018.3 - 0.0
23/01:00pm 27.1 23.9 11.2 37 9.0 ESE 19 28 10 15 1018.8 - 0.0
23/12:30pm 26.0 22.5 10.2 37 8.8 E 19 28 10 15 1019.3 - 0.0
23/12:00pm 26.1 22.9 11.1 39 8.5 E 19 28 10 15 1019.9 1019.8 0.0
23/11:30am 26.0 23.5 11.0 39 8.5 E 15 24 8 13 1020.3 - 0.0
23/11:00am 25.6 23.1 11.0 40 8.2 SE 15 24 8 13 1020.9 - 0.0
23/10:30am 24.6 22.4 12.2 46 7.1 SE 15 24 8 13 1021.3 - 0.0
23/10:00am 23.5 20.9 11.9 48 6.6 ESE 17 26 9 14 1021.7 - 0.0
23/09:30am 23.7 22.2 13.0 51 6.2 SE 13 24 7 13 1021.7 - 0.0
23/09:00am 23.0 22.1 12.6 52 5.9 E 9 20 5 11 1022.0 1021.9 0.0
23/08:30am 22.6 21.5 13.1 55 5.5 S 11 19 6 10 1022.0 - 0.0
23/08:00am 21.4 20.2 12.8 58 4.9 S 11 15 6 8 1022.4 - 0.0

Other Formats:

Comma delimited format used in spreadsheet applications
http://www.bom.gov.au/fwo/IDQ60801/IDQ60801.94567.axf

JavaScript Object Notation format (JSON) in row-major order
http://www.bom.gov.au/fwo/IDQ60801/IDQ60801.94567.json